User: anonymous
Location: Unspecified
(0.0000°N, 0.0000°E)
Time: 06:16:37
(UTC+02:00)
Language:

ADEOS II - Orbit

View from above orbital plane
View from above orbital plane
View from above satellite
View from above satellite

Ground track
Ground track

The orbit data is extracted from the following two-line orbital elements,

1 27597U 02056A   14243.69128880  .00000158  00000-0  82066-4 0  3814
2 27597 098.2769 247.5496 0002265 100.2545 029.6968 14.26846086609866
Epoch (UTC): 31 August 2014 16:35:27
Eccentricity: 0.0002265
inclination: 98.2769°
perigee height: 800 km
apogee height: 804 km
right ascension of ascending node: 247.5496°
argument of perigee: 100.2545°
revolutions per day: 14.26846086
mean anomaly at epoch: 29.6968°
orbit number at epoch: 60986

The dashed part of the orbit path shows where the satellite is in the earth's shadow,  

DLR